Location: L�gaud
(45.7115°N, 1.7775°E)
Time: 20:55:38
(UTC+00:00)

Cosmos 1066 Rocket - Pass Details

Date: 03 March 2021
Orbit: 799 x 894 km, 81.2° (Epoch: 13 April)

Event Time Altitude Azimuth Distance (km) Brightness Sun altitude
Rises 19:35:44 0° 351° (N) 3,439 7.6 -20.5°
Reaches altitude 10° 19:38:11 10° 355° (N) 2,512 6.9 -20.9°
Maximum altitude 19:43:52 62° 76° (ENE) 987 4.2 -21.8°
Enters shadow 19:45:47 41° 138° (SE) 1,266 4.7 -22.2°
